Back to catalog

STARLINK-5166

AliveCommunicationsVLEO
NORAD 54085·PAYLOAD·🇺🇸 United States

Launched Oct 20, 2022 from Cape Canaveral Space Force Station

Loading…

Next Passes (next 24 hours)

TLE

FreshSource: CelesTrak SupGP

Epoch: Sep 14, 2026, 14:10 UTC

1 54085C 22136AL  26257.59076389  .00613040  00000+0  23058-1 0  2574
2 54085  53.1608 204.7336 0001262  88.7021 229.9057 15.26301045    11

Track STARLINK-5166 in real time with AllMySat

Download on the App Store